Voltar ao catálogo

MIDAS 4 DEB

AtivoPO
NORAD 195·DEBRIS·🇺🇸 United States

Lançado Oct 21, 1961 de Vandenberg Space Force Base

Loading…

Próximas Passagens (próximas 24 horas)

TLE

AtualizadoSource: Space-Track

Época: Sep 14, 2026, 08:25 UTC

1 00195U 61028D   26257.35116564  .00000005  00000-0  39368-2 0  9991
2 00195  95.8511 222.9207 0122012 353.9893   5.9492  8.65620402 50746

Acompanhe MIDAS 4 DEB em tempo real com AllMySat

Download on the App Store